Weather Roundup
Issued by NWS

Home | Current Version | Previous Version | Graphics & Text | Print | Product List | Glossary Off
Versions: 1 2 3 4 5 6 7 8 9 10 11 12 13 14 15 16 17 18 19 20 21 22 23 24 25 26 27 28 29 30 31 32 33 34 35 36 37 38 39 40 41 42 43 44 45 46 47 48 49 50

032
NZUS93 KARX 201010
HRRWXR

CURRENT HOURLY OBSERVATIONS ACROSS
MUCH OF THE UPPER MISSISSIPPI VALLEY
NATIONAL WEATHER SERVICE LA CROSSE WI
500 AM CDT FRI APR 20 2018


...SOUTHEAST MINNESOTA...


CITY           SKY/WX    TMP DP  RH WIND       PRES   REMARKS
ROCHESTER      FAIR      26  20  77 W3        30.48R
ROCHESTER/MAYO FAIR      28  23  81 CALM      30.49R
WINONA         FAIR      27  25  93 CALM      30.49S
AUSTIN         FAIR      18  16  93 CALM      30.48S FOG
ALBERT LEA       N/A     18  18 100 CALM      30.47F
DODGE CENTER   FAIR      25  19  80 W3        30.47F
PRESTON        FAIR      28  21  78 CALM      30.48S
OWATONNA       FAIR      25  21  86 CALM      30.48S
FARIBAULT      NOT AVBL
$$

...ELSEWHERE IN MINNESOTA...


CITY           SKY/WX    TMP DP  RH WIND       PRES   REMARKS
MINNEAPOLIS    FAIR      32  26  78 CALM      30.49R
INTNL FALLS    FAIR      22  20  92 CALM      30.39S
DULUTH         FAIR      34  21  59 NW3       30.41S
RED WING       FAIR      25  18  74 CALM      30.49S
REDWOOD FALLS  CLOUDY    23  21  92 S3        30.45F
MANKATO        FAIR      24  21  88 SE6       30.48S WCI  17
WORTHINGTON    CLOUDY    28  19  69 S6        30.44S WCI  22
FAIRMONT       CLOUDY    16  14  92 S5        30.47S WCI   9
$$

...SOUTHWEST WISCONSIN...


CITY           SKY/WX    TMP DP  RH WIND       PRES   REMARKS
LA CROSSE      FAIR      28  24  85 CALM      30.50R
PRAIRIE DU CHI FAIR      25  22  89 CALM      30.51S
BOSCOBEL       FAIR      23  20  88 CALM      30.51S FOG
LONE ROCK      FAIR      23  21  92 CALM      30.50S
PLATTEVILLE    FAIR      31  27  84 CALM      30.49S
FORT MC COY    FAIR      18  17  95 CALM      30.50S
CAMP DOUGLAS   FAIR      20  19  96 CALM      30.47S
MAUSTON-NEW LI FAIR      22  20  91 CALM      30.47S
VIROQUA        FAIR      31  23  73 CALM      30.47S
WIS DELLS      FAIR      22  19  88 CALM      30.48S
$$

...ELSEWHERE IN WISCONSIN...


CITY           SKY/WX    TMP DP  RH WIND       PRES   REMARKS
MILWAUKEE      FAIR      33  23  66 NW3       30.47R
MADISON        FAIR      23  21  92 CALM      30.48R
GREEN BAY      FAIR      24  20  84 W3        30.46R
EAU CLAIRE     FAIR      26  23  88 SW3       30.47S
BLACK RVR FLS  FAIR      14  13  95 CALM      30.48S
MEDFORD        FAIR      24  18  77 CALM      30.45S
WAUSAU         FAIR      24  21  88 CALM      30.44R
WIS RAPIDS     FAIR      22  17  81 CALM      30.48R
MARSHFIELD     FAIR      28  16  60 NW6       30.45R WCI  22
RICE LAKE      FAIR      23  23  99 CALM      30.48S
$$

...NORTHEAST IOWA...


CITY           SKY/WX    TMP DP  RH WIND       PRES   REMARKS
WATERLOO       FAIR      23  21  92 CALM      30.49S
DUBUQUE        FAIR      31  22  69 CALM      30.48S
DECORAH        FAIR      27  23  86 CALM      30.48S
MASON CITY     CLOUDY    18  15  88 CALM      30.48F
CHARLES CITY   FAIR      25  25 100 NE7       30.48F WCI  17
OELWEIN        FAIR      28  28 100 NE6       30.49S WCI  22
$$

...ELSEWHERE IN IOWA...


CITY           SKY/WX    TMP DP  RH WIND       PRES   REMARKS
DES MOINES     CLOUDY    35  24  64 E6        30.48R WCI  30
IOWA CITY      FAIR      28  23  81 CALM      30.51R
FORT DODGE     CLOUDY    26  23  88 CALM      30.47S
MARSHALLTOWN   CLOUDY    29  25  85 NE3       30.47F
CEDAR RAPIDS   FAIR      27  23  85 N5        30.48R WCI  22
$$

...NORTHERN ILLINOIS...


CITY           SKY/WX    TMP DP  RH WIND       PRES   REMARKS
CHICAGO-OHARE  FAIR      37  23  56 W3        30.46R
CHICAGO-MIDWAY FAIR      35  24  64 CALM      30.47R
MOLINE         FAIR      26  23  88 CALM      30.49R
ROCKFORD       FAIR      26  21  81 CALM      30.50R
PEORIA         FAIR      31  25  78 NE3       30.48S
$$

NOTE: "FAIR" INDICATES FEW OR NO CLOUDS BELOW 12,000 FEET WITH NO
SIGNIFICANT WEATHER AND/OR OBSTRUCTIONS TO VISIBILITY. WIND
SPEEDS ARE IN MILES-PER-HOUR.




USA.gov is the U.S. government's official web portal to all federal, state and local government web resources and services.